DateTimeUTC,F1_A11,F1_S11,BsB_S11,BsG_S11,BsR_S11,BbsB_S11,BbsG_S11,BbsR_S11,BaB_A11,BaG_A11,BaR_A11,Tu_S11,T_S11,Uu_S11,U_S11,P_S11,T1_A11
2021-02-04T03:00:00Z,00000200,21000000,,,,,,,0000.25,-000.02,0000.24,16.7,23.6,,00.0,0615.8,30.9
2021-02-04T03:01:00Z,00000200,21000000,,,,,,,0000.29,0000.12,-000.12,16.7,23.6,,00.0,0615.8,30.9
2021-02-04T03:02:00Z,00000200,21000000,,,,,,,0000.22,0000.35,0000.53,16.7,23.6,,00.0,0615.8,30.9
2021-02-04T03:03:00Z,00000200,61000000,,,,,,,0000.27,0000.51,0000.10,16.7,23.6,,00.0,0615.8,31.0
2021-02-04T03:04:00Z,00000200,41000000,0000.20,-000.02,-000.36,0000.36,0000.11,-000.17,-000.12,-000.13,-000.02,17.0,23.5,00.1,00.0,0616.8,31.0
2021-02-04T03:05:00Z,00000200,01000000,-000.34,-000.14,-000.16,0000.49,0000.00,0000.19,-000.17,0000.25,-000.28,17.1,23.5,00.1,00.1,0617.0,31.0
2021-02-04T03:06:00Z,00000200,01000000,0000.03,-000.08,0000.20,0000.34,-000.12,0000.09,0000.18,-000.09,0000.16,17.0,23.5,00.1,00.0,0617.1,31.0
2021-02-04T03:07:00Z,00000200,01000000,-000.19,0000.20,0000.14,0000.29,-000.03,0000.06,0000.08,-000.00,0000.18,17.0,23.4,00.1,00.1,0617.1,31.0
2021-02-04T03:08:00Z,00000200,01000000,-000.28,0000.04,-000.04,0000.15,-000.02,0000.32,-000.04,-000.12,-000.08,17.0,23.4,00.1,00.1,0617.2,30.9
2021-02-04T03:09:00Z,00000200,01000000,-000.34,0000.15,-000.27,0000.34,-000.11,-000.14,0000.05,0000.24,-000.03,17.0,23.4,00.1,00.0,0617.2,30.9
2021-02-04T03:10:00Z,00000200,01000000,-000.13,-000.10,-000.40,-000.06,-000.15,0000.24,-000.22,-000.13,-000.21,17.0,23.4,00.1,00.0,0617.1,30.9
2021-02-04T03:11:00Z,00000200,01000000,-000.19,-000.05,-000.00,0000.22,-000.15,0000.24,0000.39,0000.05,0000.13,17.0,23.4,00.1,00.1,0617.2,30.9
2021-02-04T03:12:00Z,00000200,01000000,-000.11,-000.13,-000.19,0000.15,0000.02,0000.03,0000.28,0000.27,0000.11,16.9,23.4,00.1,00.1,0617.3,30.9
2021-02-04T03:13:00Z,00000200,01000000,0000.10,-000.11,-000.22,-000.07,-000.23,0000.15,-000.23,-000.37,-000.16,16.9,23.4,00.1,00.0,0617.3,30.9
2021-02-04T03:14:00Z,00000200,01000000,0000.32,-000.15,-000.16,0000.32,-000.05,0000.06,0000.08,0000.35,0000.27,16.9,23.4,00.1,00.1,0617.1,30.9
2021-02-04T03:15:00Z,00000200,01000000,0000.76,-000.23,0000.07,0000.30,-000.27,0000.02,-000.20,0000.16,0000.18,16.9,23.4,00.1,00.1,0617.3,30.9
2021-02-04T03:16:00Z,00000200,01000000,0000.70,0000.10,0000.32,0000.49,0000.16,0000.14,0000.68,-000.19,0000.30,16.9,23.3,00.1,00.1,0617.2,30.9
2021-02-04T03:17:00Z,00000200,01000000,0001.00,0000.02,-000.22,0000.49,0000.10,-000.05,-000.18,0000.20,-000.11,16.9,23.3,00.1,00.1,0617.2,30.9
2021-02-04T03:18:00Z,00000200,01000000,0000.40,-000.09,0000.03,0000.65,-000.23,0000.13,0000.00,0000.32,0000.31,17.0,23.4,00.1,00.1,0617.2,31.0
2021-02-04T03:19:00Z,00000200,01000000,0000.27,-000.01,0000.07,-000.16,-000.15,0000.03,0000.20,-000.27,-000.21,17.1,23.4,00.1,00.1,0617.3,31.0
2021-02-04T03:20:00Z,00000200,01000000,0000.13,0000.08,0000.10,-000.45,0000.02,0000.20,-000.34,-000.44,-000.18,17.1,23.4,00.1,00.1,0617.4,31.0
2021-02-04T03:21:00Z,00000200,01000000,-000.30,0000.21,0000.10,0000.00,-000.17,0000.17,0000.14,0000.36,0000.08,17.1,23.5,00.1,00.1,0617.3,31.0
2021-02-04T03:22:00Z,00000200,01000000,-000.19,0000.04,-000.02,-000.06,0000.07,0000.19,-000.22,-000.06,-000.23,17.2,23.4,00.1,00.1,0617.3,31.0
2021-02-04T03:23:00Z,00000200,01000000,-000.47,0000.14,0000.17,-000.14,-000.03,0000.32,0000.15,-000.02,-000.14,17.1,23.4,00.1,00.1,0617.2,31.0
2021-02-04T03:24:00Z,00000200,01000000,-000.27,-000.11,-000.08,0000.17,0000.03,0000.22,-000.04,0000.13,0000.32,17.1,23.4,00.1,00.1,0617.3,31.0
2021-02-04T03:25:00Z,00000200,01000000,0000.20,-000.01,-000.38,0000.36,0000.06,-000.09,0000.28,0000.13,0000.09,17.1,23.4,00.1,00.1,0617.4,31.0
2021-02-04T03:26:00Z,00000200,01000000,0000.51,0000.02,-000.02,0000.51,-000.22,0000.13,-000.34,-000.42,-000.21,17.1,23.4,00.1,00.1,0617.3,31.0
2021-02-04T03:27:00Z,00000200,01000000,0000.01,-000.25,0000.21,0000.21,0000.17,0000.07,0000.45,0000.80,0000.43,17.0,23.4,00.1,00.1,0617.2,31.0
2021-02-04T03:28:00Z,00000200,01000000,-000.05,-000.33,0000.12,0000.42,-000.04,0000.42,0000.09,0000.07,-000.03,17.0,23.4,00.1,00.1,0617.3,31.0
2021-02-04T03:29:00Z,00000200,01000000,0000.44,0000.05,-000.06,-000.19,0000.10,0000.10,-000.11,-000.39,-000.40,17.0,23.4,00.2,00.1,0617.2,31.0
2021-02-04T03:30:00Z,00000200,01000000,0000.39,0000.22,0000.07,0000.02,0000.11,0000.32,-000.36,-000.25,0000.13,17.0,23.4,00.1,00.0,0617.2,30.9
2021-02-04T03:31:00Z,00000200,01000000,-000.05,0000.11,-000.07,0000.25,-000.01,0000.24,0000.21,0000.07,0000.31,17.0,23.4,00.2,00.1,0617.1,30.9
2021-02-04T03:32:00Z,00000200,01000000,0000.08,0000.01,0000.09,0000.25,0000.00,0000.15,0000.31,0000.13,-000.21,17.0,23.4,00.1,00.1,0617.2,30.9
2021-02-04T03:33:00Z,00000200,01000000,0000.27,-000.00,0000.22,0000.27,-000.19,0000.21,-000.11,0000.22,-000.02,17.1,23.4,00.2,00.1,0617.1,31.0
2021-02-04T03:34:00Z,00000200,01000000,0000.61,-000.05,-000.09,0000.55,-000.06,0000.20,0000.11,0000.06,0000.28,17.1,23.4,00.1,00.1,0617.1,31.0
2021-02-04T03:35:00Z,00000200,01000000,0000.13,0000.16,0000.12,0000.49,-000.07,0000.31,0000.14,0000.24,0000.00,17.2,23.4,00.1,00.1,0617.2,31.0
2021-02-04T03:36:00Z,00000200,01000000,-000.20,0000.17,-000.31,0000.16,0000.17,0000.20,-000.18,-000.36,0000.09,17.1,23.5,00.1,00.1,0617.1,31.0
2021-02-04T03:37:00Z,00000200,01000000,-000.56,-000.06,0000.11,0000.39,-000.08,0000.30,-000.15,0000.13,-000.31,17.1,23.4,00.1,00.1,0617.0,31.0
2021-02-04T03:38:00Z,00000200,01000000,0000.42,-000.07,0000.01,0000.45,0000.18,0000.13,0000.36,0000.32,0000.35,17.1,23.4,00.1,00.1,0616.7,30.9
2021-02-04T03:39:00Z,00000200,01000000,-000.18,0000.10,-000.08,-000.12,0000.19,0000.26,0000.28,0000.34,0000.17,17.1,23.4,00.1,00.1,0616.2,30.9
2021-02-04T03:40:00Z,00000200,01000000,-000.03,0000.13,-000.10,0000.33,-000.03,0000.09,0000.20,0000.05,0000.13,17.1,23.4,00.1,00.1,0616.2,31.0
2021-02-04T03:41:00Z,00000200,01000000,-000.75,-000.36,-000.33,0000.65,0000.02,0000.26,-000.21,-000.00,-000.05,17.1,23.4,00.2,00.1,0616.0,31.0
2021-02-04T03:42:00Z,00000200,01000000,0000.56,0000.38,-000.02,0000.17,0000.03,0000.21,-000.01,-000.28,0000.22,17.0,23.4,00.2,00.1,0615.8,30.9
2021-02-04T03:43:00Z,00000200,01000000,-000.08,-000.20,-000.06,0000.72,-000.29,0000.10,0000.46,0000.15,0000.05,17.0,23.4,00.1,00.1,0616.1,30.9
2021-02-04T03:44:00Z,00000200,01000000,0000.56,0000.15,-000.12,0000.44,-000.14,0000.19,-000.23,-000.33,-000.14,17.0,23.4,00.1,00.1,0616.2,30.9
2021-02-04T03:45:00Z,00000200,01000000,-000.44,-000.27,-000.04,0000.16,-000.08,0000.22,-000.13,0000.31,0000.03,16.9,23.4,00.1,00.1,0616.2,30.9
2021-02-04T03:46:00Z,00000200,01000000,-000.74,0000.02,0000.01,0000.28,0000.14,0000.35,0000.10,-000.10,-000.13,17.0,23.3,00.1,00.1,0616.3,30.9
2021-02-04T03:47:00Z,00000200,01000000,-000.06,-000.13,0000.25,0000.72,0000.27,0000.36,0000.24,0000.06,0000.31,17.0,23.3,00.2,00.1,0616.3,30.9
2021-02-04T03:48:00Z,00000200,01000000,-000.29,-000.32,-000.03,0000.71,-000.06,0000.35,0000.04,0000.61,-000.07,17.1,23.4,00.1,00.1,0616.3,30.9
2021-02-04T03:49:00Z,00000200,01000000,0000.02,-000.30,0000.02,0000.77,0000.32,0000.17,-000.03,-000.29,0000.05,17.1,23.4,00.1,00.1,0616.4,31.0
2021-02-04T03:50:00Z,00000200,01000000,-000.45,0000.03,0000.07,0000.14,-000.16,0000.08,-000.10,-000.51,-000.24,17.2,23.4,00.1,00.1,0616.5,31.0
2021-02-04T03:51:00Z,00000200,01000000,-000.22,-000.04,0000.01,0000.69,-000.29,0000.26,0000.09,0000.62,0000.26,17.2,23.5,00.1,00.1,0616.4,31.0
2021-02-04T03:52:00Z,00000200,01000000,-000.05,-000.45,-000.02,0000.86,-000.08,0000.48,0000.23,-000.27,-000.07,17.2,23.5,00.2,00.1,0616.5,31.0
2021-02-04T03:53:00Z,00000200,01000000,-000.22,0000.06,-000.18,0000.36,-000.10,0000.05,-000.38,0000.02,-000.03,17.2,23.4,00.1,00.1,0616.6,31.0
2021-02-04T03:54:00Z,00000200,01000000,0000.05,0000.15,-000.23,0000.61,0000.05,-000.01,0000.07,0000.12,0000.10,17.2,23.4,00.1,00.1,0616.8,31.0
2021-02-04T03:55:00Z,00000200,01000000,-000.02,0000.07,-000.11,0000.31,0000.11,-000.16,0000.00,-000.03,-000.07,17.1,23.4,00.2,00.1,0616.7,31.0
2021-02-04T03:56:00Z,00000200,01000000,0000.26,-000.09,-000.05,0000.35,0000.26,0000.11,-000.16,-000.18,0000.02,17.1,23.4,00.1,00.1,0616.5,31.0
2021-02-04T03:57:00Z,00000200,41000000,,,,,,,0000.03,-000.07,-000.01,17.1,23.5,,00.0,0616.6,31.0
2021-02-04T03:58:00Z,00000200,61000000,,,,,,,0000.13,0000.28,0000.05,16.7,23.5,00.0,00.0,0615.8,30.9
2021-02-04T03:59:00Z,00000200,21000000,,,,,,,-000.25,-000.31,0000.08,16.7,23.6,,00.0,0615.8,30.9
